| time (UTC) | temp C | wind direction | speed KPH | gust KPH | rain 1hr cm | rain 24hr cm | rain mn cm | humidity % | barometer mb |
| 20260503200016 | 19 | 338 | 16.1 | 37.0 | 0.00 | 0.00 | 0.00 | 8 | 1001.5 |
| 20260503195016 | 18 | 45 | 9.7 | 27.4 | 0.00 | 0.00 | 0.00 | 7 | 1001.5 |
| 20260503194016 | 18 | 338 | 12.9 | 27.4 | 0.00 | 0.00 | 0.00 | 6 | 1001.7 |
| 20260503193016 | 18 | 338 | 8.0 | 20.9 | 0.00 | 0.00 | 0.00 | 10 | 1001.8 |
| 20260503192016 | 18 | 338 | 12.9 | 33.8 | 0.00 | 0.00 | 0.00 | 10 | 1001.8 |
| 20260503191016 | 19 | 23 | 11.3 | 25.7 | 0.00 | 0.00 | 0.00 | 7 | 1002.0 |
| 20260503190016 | 20 | 315 | 8.0 | 24.1 | 0.00 | 0.00 | 0.00 | 11 | 1002.0 |
| 20260503185016 | 20 | 203 | 6.4 | 33.8 | 0.00 | 0.00 | 0.00 | 11 | 1002.0 |
| 20260503184016 | 19 | 225 | 8.0 | 19.3 | 0.00 | 0.00 | 0.00 | 14 | 1002.1 |
| 20260503183016 | 19 | 338 | 11.3 | 30.6 | 0.00 | 0.00 | 0.00 | 11 | 1002.1 |
| 20260503182016 | 18 | 68 | 4.8 | 14.5 | 0.00 | 0.00 | 0.00 | 14 | 1002.2 |
| 20260503181016 | 18 | 90 | 4.8 | 19.3 | 0.00 | 0.00 | 0.00 | 13 | 1002.3 |
| 20260503180016 | 18 | 23 | 11.3 | 27.4 | 0.00 | 0.00 | 0.00 | 13 | 1002.5 |
| 20260503175036 | 18 | 45 | 9.7 | 25.7 | 0.00 | 0.00 | 0.00 | 14 | 1002.6 |
| 20260503174015 | 18 | 315 | 11.3 | 24.1 | 0.00 | 0.00 | 0.00 | 12 | 1002.6 |
| 20260503173016 | 18 | 23 | 12.9 | 32.2 | 0.00 | 0.00 | 0.00 | 14 | 1002.5 |
| 20260503172016 | 18 | 338 | 4.8 | 16.1 | 0.00 | 0.00 | 0.00 | 15 | 1002.6 |
| 20260503171016 | 18 | 225 | 8.0 | 25.7 | 0.00 | 0.00 | 0.00 | 15 | 1002.7 |
| 20260503131017 | 5 | 225 | 8.0 | 14.5 | 0.00 | 0.00 | 0.00 | 48 | 1003.4 |
| 20260503081016 | 3 | 0.0 | 0.0 | 0.00 | 0.00 | 0.00 | 59 | 1005.1 | |
| 20260503072036 | 3 | 0.0 | 1.6 | 0.00 | 0.00 | 0.00 | 61 | 1005.7 | |
| 20260503071017 | 4 | 158 | 1.6 | 6.4 | 0.00 | 0.00 | 0.00 | 60 | 1005.8 |
| 20260503055016 | 4 | 0.0 | 0.0 | 0.00 | 0.00 | 0.00 | 63 | 1006.3 | |
| 20260503054016 | 4 | 0.0 | 0.0 | 0.00 | 0.00 | 0.00 | 64 | 1006.4 | |
| 20260503053016 | 4 | 0.0 | 0.0 | 0.00 | 0.00 | 0.00 | 64 | 1006.4 | |
| 20260503052016 | 4 | 0.0 | 0.0 | 0.00 | 0.00 | 0.00 | 64 | 1006.4 | |
| 20260503051016 | 5 | 0.0 | 0.0 | 0.00 | 0.00 | 0.00 | 62 | 1006.5 | |
| 20260503050016 | 5 | 0.0 | 3.2 | 0.00 | 0.00 | 0.00 | 59 | 1006.6 | |
| 20260503045016 | 5 | 113 | 1.6 | 3.2 | 0.00 | 0.00 | 0.00 | 59 | 1006.7 |
| 20260503044016 | 5 | 113 | 1.6 | 3.2 | 0.00 | 0.00 | 0.00 | 58 | 1006.9 |
| 20260503043016 | 5 | 113 | 1.6 | 3.2 | 0.00 | 0.00 | 0.00 | 58 | 1006.9 |
| 20260503042016 | 4 | 0.0 | 0.0 | 0.00 | 0.00 | 0.00 | 60 | 1007.0 | |
| 20260503041016 | 4 | 0.0 | 0.0 | 0.00 | 0.00 | 0.00 | 60 | 1007.1 | |
| 20260503040016 | 5 | 0.0 | 0.0 | 0.00 | 0.00 | 0.00 | 58 | 1007.0 | |
| 20260503035016 | 5 | 0.0 | 1.6 | 0.00 | 0.00 | 0.00 | 57 | 1007.0 | |
| 20260503034036 | 5 | 0.0 | 0.0 | 0.00 | 0.00 | 0.00 | 56 | 1007.2 | |
| 20260503033016 | 5 | 113 | 1.6 | 3.2 | 0.00 | 0.00 | 0.00 | 56 | 1007.4 |
| 20260503032016 | 5 | 0.0 | 0.0 | 0.00 | 0.00 | 0.00 | 54 | 1007.7 | |
| 20260503031016 | 5 | 0.0 | 0.0 | 0.00 | 0.00 | 0.00 | 52 | 1007.6 | |
| 20260503030016 | 5 | 0.0 | 3.2 | 0.00 | 0.00 | 0.00 | 54 | 1007.8 | |
| 20260503025036 | 5 | 0.0 | 0.0 | 0.00 | 0.00 | 0.00 | 55 | 1007.8 | |
| 20260503024036 | 5 | 0.0 | 0.0 | 0.00 | 0.00 | 0.00 | 53 | 1008.0 | |
| 20260503023016 | 5 | 0.0 | 0.0 | 0.00 | 0.00 | 0.00 | 47 | 1008.0 | |
| 20260503022016 | 5 | 0.0 | 3.2 | 0.00 | 0.00 | 0.00 | 47 | 1008.2 | |
| 20260503021016 | 5 | 113 | 1.6 | 4.8 | 0.00 | 0.00 | 0.00 | 47 | 1008.0 |
| 20260503020056 | 5 | 0.0 | 3.2 | 0.00 | 0.00 | 0.00 | 48 | 1008.0 | |
| 20260503015016 | 5 | 0.0 | 4.8 | 0.00 | 0.00 | 0.00 | 49 | 1008.1 | |
| 20260503014016 | 5 | 0.0 | 3.2 | 0.00 | 0.00 | 0.00 | 51 | 1008.3 | |
| 20260503013016 | 6 | 0.0 | 3.2 | 0.00 | 0.00 | 0.00 | 46 | 1008.4 | |
| 20260503012016 | 6 | 113 | 1.6 | 3.2 | 0.00 | 0.00 | 0.00 | 43 | 1008.2 |
| 20260503011016 | 6 | 90 | 1.6 | 6.4 | 0.00 | 0.00 | 0.00 | 44 | 1008.1 |
| 20260503010016 | 6 | 113 | 1.6 | 4.8 | 0.00 | 0.00 | 0.00 | 44 | 1008.3 |
| 20260503005016 | 6 | 90 | 3.2 | 8.0 | 0.00 | 0.00 | 0.00 | 44 | 1008.4 |
| 20260503004036 | 6 | 113 | 3.2 | 9.7 | 0.00 | 0.00 | 0.00 | 43 | 1008.5 |
| 20260503003036 | 6 | 90 | 1.6 | 4.8 | 0.00 | 0.00 | 0.00 | 45 | 1008.6 |
| 20260503002016 | 6 | 90 | 3.2 | 9.7 | 0.00 | 0.00 | 0.00 | 43 | 1008.6 |
| 20260503001016 | 6 | 135 | 3.2 | 6.4 | 0.00 | 0.00 | 0.00 | 46 | 1008.8 |
| 20260503000016 | 6 | 135 | 3.2 | 11.3 | 0.00 | 0.00 | 0.00 | 47 | 1008.8 |
| 20260502235015 | 6 | 135 | 3.2 | 6.4 | 0.00 | 0.00 | 0.00 | 46 | 1008.9 |
| 20260502234036 | 6 | 68 | 4.8 | 9.7 | 0.00 | 0.00 | 0.00 | 49 | 1008.9 |
| 20260502233015 | 6 | 113 | 3.2 | 6.4 | 0.00 | 0.00 | 0.00 | 50 | 1009.1 |
| 20260502232015 | 5 | 135 | 1.6 | 6.4 | 0.00 | 0.00 | 0.00 | 50 | 1009.2 |
| 20260502231015 | 5 | 113 | 3.2 | 9.7 | 0.00 | 0.00 | 0.00 | 53 | 1009.4 |
| 20260502230016 | 5 | 0.0 | 3.2 | 0.00 | 0.00 | 0.00 | 57 | 1009.3 | |
| 20260502225016 | 6 | 113 | 1.6 | 6.4 | 0.00 | 0.00 | 0.00 | 52 | 1009.4 |
| 20260502224015 | 6 | 113 | 3.2 | 6.4 | 0.00 | 0.00 | 0.00 | 53 | 1009.6 |
| 20260502223036 | 6 | 90 | 3.2 | 4.8 | 0.00 | 0.00 | 0.00 | 50 | 1009.7 |
| 20260502222015 | 6 | 90 | 1.6 | 4.8 | 0.00 | 0.00 | 0.00 | 49 | 1009.8 |
| 20260502221015 | 6 | 113 | 3.2 | 6.4 | 0.00 | 0.00 | 0.00 | 53 | 1009.9 |
| 20260502220015 | 6 | 113 | 4.8 | 11.3 | 0.00 | 0.00 | 0.00 | 53 | 1010.0 |
| 20260502215015 | 6 | 113 | 4.8 | 6.4 | 0.00 | 0.00 | 0.00 | 53 | 1010.1 |
| 20260502214035 | 6 | 135 | 4.8 | 8.0 | 0.00 | 0.00 | 0.00 | 52 | 1010.1 |
| 20260502213058 | 5 | 113 | 3.2 | 6.4 | 0.00 | 0.00 | 0.00 | 54 | 1010.4 |
| 20260502212017 | 5 | 113 | 4.8 | 8.0 | 0.00 | 0.00 | 0.00 | 56 | 1010.6 |
| 20260502211017 | 5 | 135 | 4.8 | 8.0 | 0.00 | 0.00 | 0.00 | 58 | 1010.5 |
| 20260502210017 | 4 | 135 | 6.4 | 12.9 | 0.00 | 0.00 | 0.00 | 60 | 1010.7 |
| 20260502205037 | 4 | 113 | 6.4 | 12.9 | 0.00 | 0.00 | 0.00 | 61 | 1010.8 |
| 20260502204017 | 4 | 113 | 8.0 | 12.9 | 0.00 | 0.00 | 0.00 | 61 | 1011.0 |
| 20260502203017 | 4 | 135 | 6.4 | 14.5 | 0.00 | 0.00 | 0.00 | 62 | 1011.1 |
| 20260502202017 | 3 | 113 | 8.0 | 12.9 | 0.00 | 0.00 | 0.00 | 64 | 1011.4 |
| 20260502201017 | 3 | 113 | 9.7 | 14.5 | 0.00 | 0.00 | 0.00 | 64 | 1011.5 |